GFSGBSN_925_rhum_081.txt.gz
RH
98 98 95 96 94 83 86 92 93 83 74 79 80 84 87 92 96 96 74 52 47 40 44 40 54 93 70 32 22 21 22 27 40 39 25 19 17 15 15 12 11 12 12 11 12 11 11
94 95 94 95 92 90 93 96 87 80 84 82 78 72 82 86 94 78 58 48 42 42 48 46 57 99 68 33 19 19 18 23 24 26 21 18 16 14 15 15 14 11 12 13 12 11 12
97 93 95 95 95 94 97 89 80 80 84 83 70 61 64 61 67 61 45 42 38 45 49 53 80 87 45 28 21 19 21 18 14 17 19 17 19 19 18 20 16 16 19 15 13 13 14
99 98 91 80 82 87 82 78 77 83 81 72 63 58 57 51 52 45 37 36 45 58 71 65 70 67 37 25 24 24 23 21 18 17 16 16 16 21 20 16 17 18 18 19 12 12 14
96 98 92 84 91 86 81 79 79 81 73 64 62 60 53 50 48 39 38 43 58 80 74 70 76 54 31 32 29 27 26 19 17 20 17 16 16 21 19 24 26 20 21 16 14 12 15
99 96 94 95 88 86 81 76 75 73 72 66 62 60 52 48 46 42 44 48 69 81 84 62 58 56 35 22 25 28 26 26 20 20 20 20 18 22 21 24 30 15 17 17 17 14 19
99 97 94 92 86 81 79 87 88 82 80 69 65 60 54 47 40 47 51 48 49 49 38 21 18 26 18 14 17 18 21 21 21 20 25 20 24 24 22 21 22 19 19 19 16 14 16
97 97 84 87 81 84 90 89 91 90 78 72 66 58 45 46 38 41 44 26 35 46 28 20 24 26 27 29 27 18 15 25 24 27 21 22 27 18 15 16 19 22 24 25 18 16 23
90 90 94 85 84 91 86 91 89 82 76 68 57 44 46 46 38 55 36 37 40 46 42 21 26 30 28 31 28 23 17 21 21 27 25 29 22 25 24 23 24 23 25 24 25 22 21
99 97 91 94 89 86 88 89 83 74 64 57 50 49 47 43 48 36 33 39 45 63 46 22 32 30 27 29 34 23 21 18 22 26 23 24 20 22 21 28 24 29 21 26 32 31 28
91 90 89 95 95 88 86 81 73 66 60 58 52 53 46 47 48 28 38 45 59 65 29 14 29 24 13 26 23 28 22 20 24 24 27 25 24 31 32 27 24 30 26 35 33 32 28
97 94 94 95 88 84 80 80 77 68 66 66 56 48 48 55 51 44 50 58 65 58 18 19 20 20 12 16 18 22 25 23 20 27 23 26 19 24 28 26 31 24 34 35 29 28 39
90 90 90 86 76 73 77 81 73 69 66 60 50 42 58 57 43 56 58 50 43 17 7 20 23 17 13 9 13 20 22 29 29 36 32 27 26 24 32 32 29 34 39 36 26 39 42
91 90 86 81 70 70 83 83 77 64 57 57 48 54 59 54 63 66 51 37 20 10 12 19 18 15 11 8 15 12 17 16 15 21 24 23 25 22 24 34 31 30 35 36 44 38 45
91 92 92 82 74 84 82 73 64 60 60 54 52 62 57 64 74 61 39 29 20 25 24 25 16 12 10 12 25 17 16 14 13 18 30 24 21 21 26 28 28 35 41 27 40 36 40
91 93 85 78 85 82 77 69 62 63 60 47 50 49 46 68 66 53 28 28 21 24 24 21 21 13 22 17 24 17 19 22 29 32 26 24 29 23 28 29 30 33 36 65 51 62 49
96 87 83 78 86 70 65 65 62 67 60 52 49 40 49 55 64 29 46 24 23 22 25 26 21 23 21 20 17 17 16 19 36 40 39 39 29 24 22 34 31 40 47 48 57 58 60
90 85 86 81 80 69 78 70 66 72 56 62 41 56 49 56 42 32 31 28 46 28 30 30 30 29 29 26 28 26 23 15 21 38 62 60 73 38 24 20 20 24 36 43 68 49 52
82 73 78 86 80 75 69 63 66 72 59 48 33 35 39 57 69 38 34 33 34 34 35 34 34 31 31 36 39 26 24 19 17 23 80 85 67 56 38 29 24 29 28 33 55 68 65
85 80 82 78 75 70 63 60 63 72 57 64 43 69 39 31 31 46 46 39 40 41 45 40 42 43 44 41 32 39 35 24 23 30 62 65 67 69 51 49 60 67 32 39 53 70 56
95 85 84 82 70 78 65 64 68 68 56 67 52 62 44 63 44 39 44 38 40 47 43 34 66 60 46 50 41 40 40 43 37 24 32 65 71 52 48 33 41 62 82 41 50 46 47
86 98 87 86 83 85 66 68 68 62 54 54 90 45 38 39 41 42 46 36 31 36 35 36 54 38 34 41 36 52 52 50 48 37 58 75 72 57 70 54 45 54 56 30 26 23 25
87 84 75 86 76 86 87 80 74 55 68 46 63 54 43 46 38 37 36 35 38 35 33 31 34 39 40 38 36 36 37 40 42 50 55 77 78 76 69 58 51 66 44 31 22 24 26
86 94 89 88 83 81 90 79 67 64 67 50 54 44 49 49 31 33 33 33 34 34 41 33 32 40 32 30 34 36 37 39 42 42 39 88 79 86 88 55 70 34 22 20 24 26 35
77 81 83 87 84 90 89 78 75 71 57 62 52 44 45 56 29 32 35 34 32 32 41 35 32 31 34 43 58 48 39 36 42 38 37 41 87 90 95 44 36 24 34 33 39 68 49
76 87 86 84 82 83 79 73 71 78 60 70 52 51 44 68 40 29 35 33 37 34 34 34 32 35 45 76 70 73 63 48 43 30 28 45 75 92 82 60 52 53 36 34 30 56 58
81 84 84 82 82 82 82 73 70 69 68 66 61 65 50 80 37 39 42 46 37 45 44 37 44 44 45 69 81 83 82 48 49 39 61 69 74 82 88 47 44 49 37 33 44 89 64
83 80 71 82 73 82 79 82 80 88 72 72 72 64 60 65 41 41 38 42 40 43 55 49 50 63 59 71 69 85 92 60 49 34 46 48 49 55 51 54 61 61 46 65 89 75 72
79 80 80 76 77 78 74 72 70 77 77 75 85 70 68 71 55 54 52 50 44 38 43 42 51 55 59 71 61 81 91 66 62 60 44 73 87 95 89 98 83 72 79 83 78 86 84

GFSGBSN_925_rhum_087.txt.gz
RH
99 99 98 90 88 91 91 95 92 90 85 90 90 82 81 91 90 91 86 70 55 64 75 61 73 96 58 66 57 24 22 17 20 24 28 28 30 23 20 18 18 18 16 14 14 14 14
100 100 100 99 90 96 92 96 93 87 87 84 81 80 76 72 67 71 64 52 52 46 43 38 65 100 95 69 12 18 17 20 25 37 32 32 28 21 18 17 17 14 16 16 17 18 16
100 100 100 100 97 100 98 94 93 88 86 86 80 88 76 64 60 60 47 44 38 35 36 40 73 98 74 50 12 18 21 16 14 15 23 20 19 22 23 28 22 22 25 21 19 18 17
100 100 100 100 100 100 99 94 93 87 91 85 96 84 69 61 58 48 40 36 35 42 40 66 91 94 86 17 26 25 20 19 16 17 14 13 14 19 23 24 26 31 28 31 20 16 14
100 100 100 100 100 100 100 97 86 94 87 83 89 76 64 63 56 44 36 36 42 60 68 81 95 95 66 29 30 23 19 17 16 16 16 13 14 19 23 29 40 34 42 33 26 18 16
96 100 100 100 100 100 99 92 89 93 88 92 87 78 74 64 53 34 33 35 47 66 67 80 77 86 58 28 20 23 23 22 22 20 20 20 21 27 29 34 50 41 34 30 30 22 19
98 100 100 100 100 100 99 90 98 94 91 84 83 85 72 61 43 30 39 56 78 89 73 69 63 43 30 17 17 17 14 17 22 25 35 28 35 39 31 29 27 27 26 28 25 21 20
90 99 100 100 100 99 93 100 95 84 75 78 95 83 66 52 30 28 45 66 34 41 51 42 55 37 18 19 28 22 17 19 31 38 30 32 39 28 24 23 25 26 28 28 23 19 20
94 100 100 100 99 96 100 95 84 74 86 96 80 66 55 39 36 42 47 34 36 43 57 33 22 33 21 26 30 22 15 18 26 32 33 39 30 23 24 25 27 29 31 29 26 23 21
100 100 100 99 100 98 95 91 86 90 90 81 66 54 48 43 57 49 44 37 44 58 73 38 21 24 26 28 35 22 18 18 21 28 29 31 24 24 24 29 27 34 26 26 24 30 48
100 100 99 97 93 90 89 92 99 90 81 64 58 61 45 47 72 59 46 41 46 70 65 24 23 21 23 31 21 26 18 20 28 28 25 34 28 27 28 27 24 30 25 28 31 37 45
94 88 84 86 92 96 94 90 88 76 73 76 65 54 44 56 68 58 44 50 60 92 64 27 29 27 23 19 17 25 25 22 22 28 25 26 20 21 24 20 22 25 34 39 40 42 57
93 95 99 99 97 95 93 90 87 82 75 70 86 66 53 58 66 57 48 67 96 77 17 21 26 17 14 14 15 12 28 35 39 44 44 32 27 22 18 26 25 30 43 72 61 62 60
98 98 97 95 93 95 94 91 90 89 78 80 73 48 61 62 66 60 66 79 73 27 21 15 14 15 16 13 11 12 16 20 18 22 22 23 30 20 22 26 36 40 46 73 73 70 59
93 94 94 94 93 94 94 97 86 80 78 79 62 50 73 71 50 64 83 83 48 28 20 19 13 15 14 11 14 19 23 25 23 45 64 59 44 32 24 26 31 40 46 38 54 51 62
92 93 93 93 94 94 92 84 75 74 80 74 73 68 62 52 55 72 80 57 31 19 18 16 17 14 20 23 22 22 21 17 18 28 24 43 68 40 33 31 30 33 34 69 85 91 81
92 93 92 98 95 89 85 76 72 72 66 59 76 77 56 47 61 84 89 44 22 21 23 25 25 23 24 24 25 26 22 21 22 24 22 30 65 63 45 44 45 42 46 47 59 74 87
97 92 94 98 76 67 70 78 70 65 55 56 78 90 48 55 86 83 61 30 31 24 23 25 27 25 26 32 32 30 28 26 36 35 40 49 69 67 52 37 32 43 50 55 70 68 73
90 84 90 93 76 69 75 69 73 67 55 72 82 63 38 60 94 77 32 30 26 27 31 29 29 34 36 36 39 32 34 30 36 39 61 55 69 86 48 38 50 69 73 79 89 82 96
89 90 92 89 75 74 79 63 58 60 54 73 87 90 53 63 49 58 45 40 38 33 41 33 33 37 40 42 35 40 35 30 37 35 51 46 63 72 81 64 51 88 72 57 86 99 97
84 84 88 88 75 66 65 56 51 51 50 77 90 88 57 87 66 53 45 35 45 45 36 36 49 45 49 55 45 44 44 41 36 37 43 58 75 61 53 44 42 44 70 52 72 86 98
81 85 89 91 93 85 65 51 55 48 54 74 96 88 60 57 45 49 48 38 31 33 29 50 49 42 38 47 45 55 52 53 53 46 54 72 83 80 69 56 54 44 38 39 49 72 79
85 80 76 83 94 90 78 54 54 51 76 69 48 52 74 52 46 53 50 37 34 37 33 27 32 40 46 46 49 47 46 48 50 54 59 63 89 85 68 56 61 68 52 46 54 62 69
95 92 81 87 87 87 84 61 56 56 71 79 57 64 86 73 50 47 34 33 31 33 39 36 37 39 44 39 43 45 45 43 43 44 43 63 74 84 89 73 93 42 42 48 80 89 86
86 94 92 89 85 89 83 59 53 52 60 71 64 65 81 91 50 35 35 34 32 33 36 37 37 41 44 44 71 77 65 56 53 46 50 47 70 89 89 96 71 52 93 96 78 99 69
78 94 95 93 86 89 76 58 56 55 64 68 61 62 77 98 72 31 39 31 46 56 54 48 44 36 40 92 92 93 85 63 71 65 52 69 73 82 89 95 94 98 94 78 87 99 76
94 88 92 88 81 80 67 56 56 60 61 72 64 62 69 99 58 55 67 69 48 62 62 64 58 63 55 91 94 96 95 60 80 95 66 78 80 81 87 92 89 99 87 67 86 98 77
74 77 82 84 77 75 69 64 53 50 49 75 70 61 70 88 68 58 45 48 55 64 88 66 73 76 85 88 95 94 97 90 93 99 81 71 80 87 82 94 95 84 76 87 99 82 76
72 76 79 83 75 78 69 65 57 46 47 75 74 58 56 74 73 54 52 50 49 50 65 66 62 72 95 92 88 92 89 94 94 95 94 98 100 98 96 98 100 91 95 97 85 90 84

GFSGBSN_925_rhum_093.txt.gz
RH
57 71 92 92 100 98 99 99 98 92 87 90 91 89 91 88 80 74 81 76 59 48 43 38 67 96 66 71 53 6 14 22 23 28 24 32 38 32 27 23 25 31 27 26 26 27 26
59 55 55 80 89 96 100 99 100 100 95 89 96 92 89 79 78 80 72 63 48 46 42 38 68 95 91 47 11 13 19 26 25 26 32 29 34 32 33 31 24 19 19 22 21 21 20
68 56 51 57 81 93 98 99 100 100 100 97 97 95 88 80 77 79 71 55 47 39 38 50 82 93 81 52 12 32 43 32 26 37 38 34 32 34 24 26 26 28 34 32 29 24 21
58 52 55 51 70 89 86 94 97 100 100 100 100 99 89 89 86 78 64 56 54 38 33 62 86 96 81 38 25 27 15 26 24 23 29 20 16 23 23 23 27 30 33 40 28 26 23
57 50 62 78 92 98 89 91 100 100 100 100 100 99 93 90 95 83 72 59 38 35 43 84 95 84 79 42 60 35 39 31 24 22 20 18 17 21 21 32 38 38 46 42 36 26 24
57 54 62 98 100 100 98 91 100 100 100 100 100 95 93 100 91 80 71 50 40 69 70 95 91 84 70 43 35 31 29 27 23 23 23 23 25 27 35 37 52 45 42 43 42 29 26
60 81 83 95 99 100 95 94 100 100 100 100 99 97 99 94 87 81 77 46 82 86 82 74 68 64 42 37 23 18 24 25 26 29 36 27 33 39 31 33 31 34 39 42 35 29 29
59 50 81 87 90 93 94 94 99 100 100 100 100 94 90 82 78 87 87 74 54 45 64 68 62 59 40 44 56 28 18 27 28 42 35 40 43 31 32 31 33 35 39 39 33 28 31
77 57 89 79 86 89 95 93 100 100 100 100 99 93 85 83 83 83 72 49 44 39 49 36 54 63 53 54 59 36 22 22 28 34 43 48 38 33 34 36 38 38 40 38 39 32 31
90 90 94 97 96 93 99 100 100 100 100 100 93 93 83 69 59 57 74 21 53 42 33 30 39 49 49 46 42 26 20 22 26 33 40 44 32 35 39 39 37 46 33 34 38 39 47
84 90 100 99 100 100 100 100 100 99 96 98 100 85 66 52 78 81 55 45 55 63 48 26 37 27 42 36 34 35 17 21 27 29 33 36 31 38 40 38 34 39 34 34 35 42 52
78 77 83 90 92 97 99 100 100 100 100 97 89 78 67 64 52 60 59 50 63 93 58 35 34 37 41 36 29 28 26 22 24 29 29 33 24 25 28 25 27 25 33 40 47 54 67
92 88 86 77 72 76 84 89 92 97 94 90 82 72 64 67 77 69 61 71 89 88 27 45 44 41 43 42 39 32 34 38 45 48 47 35 33 27 25 30 28 29 40 59 61 71 70
98 99 98 98 98 98 98 92 90 91 91 85 75 56 53 61 71 66 64 91 100 34 27 19 30 37 46 18 20 23 38 49 27 46 46 45 42 38 39 40 41 39 43 62 68 77 50
97 96 99 99 98 97 98 97 96 87 85 65 51 45 62 51 70 68 88 98 60 35 22 24 19 27 26 21 20 24 26 32 31 28 52 48 56 32 40 30 39 40 50 38 50 53 69
96 98 96 92 96 97 98 91 88 84 75 53 80 87 82 60 64 76 96 84 38 32 31 32 29 28 29 28 26 25 30 32 31 28 29 38 40 45 31 36 40 38 47 71 90 92 86
95 96 95 94 91 96 95 93 77 94 80 75 77 93 76 76 69 96 97 77 32 29 29 34 31 30 32 32 33 32 38 42 32 33 45 49 50 47 26 46 46 43 48 71 81 83 91
79 78 97 98 97 94 94 94 92 76 76 68 88 96 69 68 98 95 91 46 32 33 31 32 39 42 41 39 39 39 44 43 38 39 48 48 65 76 43 38 38 42 78 82 97 93 86
81 85 96 95 96 94 93 94 82 63 64 77 90 78 65 66 98 85 43 45 46 39 44 40 41 42 40 45 50 41 44 48 44 46 45 41 61 65 32 42 47 54 47 47 60 84 92
86 83 93 89 90 91 93 90 69 62 61 69 92 85 66 81 75 64 51 46 47 41 44 45 50 47 46 51 45 45 51 49 48 53 54 50 61 56 67 50 59 68 59 55 62 95 90
92 92 93 91 94 92 91 65 57 58 59 78 94 85 63 87 72 55 50 48 51 51 42 45 53 57 54 60 50 58 57 54 46 44 60 60 68 67 65 65 55 56 57 54 62 58 73
94 86 88 85 95 87 75 64 56 51 70 81 90 79 69 60 50 52 56 50 51 45 50 51 56 49 48 56 51 57 56 53 54 49 54 71 75 63 61 45 44 58 57 55 56 54 52
90 90 90 94 91 87 76 62 56 65 73 74 70 66 68 65 55 53 49 47 46 46 44 41 42 45 54 56 52 51 52 52 48 59 64 67 80 81 64 56 66 67 67 89 56 46 56
91 93 94 96 93 90 67 61 65 68 63 61 71 76 82 72 53 52 45 42 44 43 45 37 40 46 44 41 48 52 57 61 63 57 57 79 77 83 89 67 96 58 87 98 89 91 94
90 92 93 92 90 88 64 63 66 67 63 62 71 70 79 87 54 45 44 48 44 41 40 60 50 45 47 62 72 74 70 55 58 66 68 58 73 95 94 96 66 59 94 98 98 99 100
83 94 94 89 92 75 68 57 67 67 58 59 67 69 80 81 72 63 53 46 59 59 72 56 53 56 64 92 92 92 87 68 69 78 69 70 62 78 95 99 96 90 84 79 100 96 96
89 95 95 88 83 68 64 56 60 65 55 54 61 63 62 90 73 60 63 64 64 70 79 68 63 66 67 95 98 98 95 74 91 100 93 91 94 89 92 96 86 95 94 98 97 98 94
93 97 86 78 80 66 61 56 53 66 56 48 64 60 62 90 76 66 60 62 69 73 85 69 74 77 86 93 93 96 97 84 97 93 96 95 94 92 87 96 95 90 86 94 99 97 94
97 89 84 75 76 65 59 52 45 67 60 48 62 58 54 77 73 60 52 51 47 52 75 80 70 87 93 90 92 94 98 96 95 98 88 97 98 97 96 96 99 98 98 98 99 96 92

GFSGBSN_925_rhum_096.txt.gz
RH
95 85 61 54 52 54 84 98 97 95 96 98 98 94 92 90 96 93 81 81 79 64 52 45 58 83 48 38 24 11 12 21 28 34 34 28 32 25 22 25 32 37 34 31 28 28 30
95 92 74 57 55 48 46 58 100 99 95 99 99 99 95 99 95 93 92 84 75 63 49 51 83 91 77 20 12 12 16 26 21 26 26 32 35 33 33 34 27 22 24 22 23 23 23
96 87 74 58 56 58 55 50 68 100 99 97 96 100 100 100 98 89 92 85 76 65 53 57 95 97 88 32 15 23 47 40 29 24 39 27 28 34 30 26 26 28 36 32 31 29 30
89 83 68 63 59 99 100 92 84 92 98 99 99 100 100 100 98 92 94 87 76 60 50 53 96 95 85 31 30 24 15 26 35 36 38 31 32 28 24 23 27 30 35 40 30 27 25
94 80 76 74 76 95 100 100 100 100 98 100 99 100 100 100 96 91 92 87 79 61 70 66 100 93 83 44 63 31 27 28 21 30 28 25 20 25 22 30 38 39 49 42 36 27 27
96 90 78 64 57 68 94 98 99 100 100 100 99 100 100 100 94 94 92 88 72 73 70 90 95 74 62 35 43 46 38 30 27 30 26 26 29 30 37 39 48 49 47 43 40 29 28
97 92 74 64 57 62 84 93 93 95 100 99 100 100 100 99 94 95 91 84 89 89 92 72 66 54 41 44 36 24 43 38 28 30 39 33 39 41 31 34 33 35 39 44 38 32 31
98 93 73 69 65 78 83 86 92 96 97 97 100 100 100 100 97 91 87 81 66 81 93 66 63 59 46 44 59 42 30 35 40 47 36 40 46 32 30 30 32 34 38 41 35 31 34
95 97 81 73 68 90 78 82 92 87 88 100 100 100 100 100 96 98 91 70 49 61 75 53 44 63 50 49 52 54 26 29 33 46 45 49 37 34 35 38 40 41 42 41 40 34 33
93 99 87 85 83 91 85 88 94 96 100 100 100 100 100 100 86 74 86 62 46 45 69 37 44 55 50 52 62 34 24 24 30 41 46 47 38 38 42 43 42 49 39 38 41 44 52
93 100 92 81 98 100 100 100 100 100 100 100 100 100 96 82 76 79 74 46 47 65 84 24 43 36 49 49 34 46 22 22 32 35 41 46 36 45 45 41 38 45 38 42 42 47 54
96 99 100 95 95 99 98 98 99 100 100 99 100 99 93 86 84 78 68 60 71 76 74 34 39 52 65 47 37 31 26 22 25 29 32 36 26 29 34 31 35 28 34 41 52 56 61
100 97 99 97 82 79 80 79 82 86 88 90 93 94 89 92 78 74 60 74 73 80 36 44 47 48 45 42 41 36 34 43 46 48 46 36 33 27 28 30 30 32 39 53 55 68 61
98 99 96 98 96 88 82 85 90 93 96 93 92 85 87 75 80 79 71 88 69 32 26 22 33 45 50 41 31 34 43 41 27 46 49 46 42 41 40 41 43 43 42 58 64 71 60
92 91 97 98 99 99 98 95 88 86 87 95 92 80 66 72 78 74 83 96 59 41 31 35 50 49 28 22 25 25 33 36 30 29 49 58 56 38 32 30 41 45 51 46 54 58 65
84 89 96 98 92 95 98 97 95 93 89 65 65 72 80 61 74 70 98 78 53 41 39 43 88 59 31 32 28 30 35 37 31 37 32 39 32 47 32 35 34 36 44 75 86 86 75
89 88 95 98 98 96 98 94 90 90 87 61 84 95 67 71 62 92 97 74 40 38 36 46 45 45 38 36 36 38 46 43 36 42 45 46 40 41 29 41 39 37 53 77 81 88 97
87 75 80 93 93 99 98 97 94 95 96 83 91 98 82 72 97 91 94 58 39 46 40 46 58 53 49 45 43 49 53 50 47 39 48 48 64 61 42 42 46 44 82 75 93 92 88
94 67 92 98 97 96 96 94 94 94 83 73 84 91 78 75 99 97 64 50 52 48 54 52 53 50 50 49 48 48 54 48 52 45 46 40 61 49 34 40 38 57 52 60 68 83 92
93 70 90 96 97 95 87 95 93 86 68 69 91 89 75 85 86 79 55 56 54 47 52 51 55 50 49 52 51 53 57 50 52 56 56 50 60 44 39 38 64 66 62 59 73 98 80
87 83 97 93 85 94 93 94 88 68 64 74 97 83 68 94 87 68 51 51 53 51 45 48 56 56 54 54 55 63 56 50 48 51 60 59 63 66 62 64 58 60 50 45 61 59 83
92 88 88 93 94 95 91 90 66 62 68 83 91 82 71 66 59 58 57 51 52 48 50 52 59 50 48 55 52 59 53 50 47 54 57 69 78 63 67 58 54 51 52 57 59 59 61
94 94 90 92 95 89 86 66 61 65 74 82 72 70 71 64 54 54 52 53 48 48 43 44 48 52 56 53 46 44 46 48 43 56 61 63 82 78 66 58 52 44 54 86 87 78 85
95 92 91 95 91 88 78 64 73 75 74 63 68 77 82 72 54 54 48 44 48 44 47 43 45 50 44 42 46 52 56 58 59 59 57 80 73 80 82 63 64 67 84 86 92 90 92
92 94 94 93 92 88 64 67 79 74 65 66 72 70 75 83 54 49 49 50 49 58 60 62 60 56 51 62 67 62 67 60 66 68 69 63 80 93 88 96 63 68 88 97 98 87 97
90 95 95 91 93 73 62 65 74 64 62 61 71 75 74 80 73 66 54 49 60 68 72 58 56 60 66 90 89 86 92 76 72 77 72 71 66 85 91 97 99 93 81 76 94 96 95
87 90 93 92 93 68 62 64 68 59 55 54 67 66 66 92 74 60 58 65 65 73 76 69 69 68 67 96 99 97 94 73 92 99 93 88 93 91 92 96 90 91 85 89 98 97 95
88 91 87 85 71 65 62 58 67 58 50 50 69 61 60 89 73 66 56 65 69 70 80 69 73 76 86 92 89 97 96 92 91 94 98 96 95 94 86 97 95 89 75 89 98 97 96
93 93 80 80 68 65 57 51 62 60 50 49 59 57 52 77 71 64 61 55 46 52 78 83 68 88 92 93 95 95 98 98 96 98 87 96 98 97 95 98 96 96 97 98 97 96 96

GFSGBSN_925_rhum_102.txt.gz
RH
96 98 97 98 96 92 82 71 60 55 52 51 52 76 79 95 85 92 100 100 95 85 80 66 50 45 47 32 30 28 21 21 31 40 21 19 18 16 16 12 13 20 13 12 12 12 13
95 93 94 95 87 86 95 79 63 60 58 58 55 75 89 82 96 86 99 100 98 89 79 66 54 53 56 63 32 16 30 47 35 31 20 16 15 13 12 12 13 13 16 15 17 17 16
92 88 89 89 86 83 88 82 69 61 59 64 89 99 98 94 86 100 100 100 98 90 79 69 67 74 62 53 34 24 27 26 31 26 20 17 14 15 13 17 14 17 20 16 16 16 15
92 93 91 88 85 87 88 83 60 59 61 89 96 94 98 95 91 100 100 100 97 92 82 78 54 73 70 51 43 40 31 27 33 33 24 18 19 19 21 16 19 21 20 23 17 16 16
89 89 85 87 85 87 90 67 58 61 86 99 99 93 93 97 97 100 99 99 97 92 84 79 78 77 69 47 46 40 40 30 23 32 27 28 24 24 25 27 23 22 24 22 19 18 18
88 87 83 85 85 88 72 65 63 64 98 100 99 88 89 93 99 100 100 100 98 88 84 84 68 89 61 46 33 33 43 34 23 19 31 32 30 29 27 24 32 25 24 21 22 17 19
92 89 91 94 90 73 70 66 70 100 100 96 83 83 89 95 100 100 99 96 90 92 83 69 59 52 41 33 35 32 42 37 21 23 36 31 37 32 26 23 22 22 21 22 19 17 22
76 81 90 92 86 70 72 78 78 100 89 81 81 86 88 100 100 94 99 89 66 65 73 57 56 52 50 46 42 30 37 30 24 26 29 36 45 29 22 21 24 25 25 23 18 16 16
71 80 76 72 74 74 97 77 73 96 94 79 82 89 92 100 99 100 97 82 70 64 82 57 48 54 48 48 54 40 31 29 31 32 25 50 39 25 23 28 31 27 24 22 19 20 22
68 67 68 75 74 98 98 78 67 91 84 79 84 87 100 100 99 98 91 78 65 64 99 49 54 48 48 48 58 40 32 33 46 59 48 58 40 40 32 31 26 28 19 19 23 29 27
75 65 71 83 82 98 100 83 67 94 89 88 95 100 98 92 95 92 84 77 63 61 90 33 38 31 36 52 36 40 38 34 47 46 53 56 44 52 57 31 23 26 22 29 26 30 29
77 63 80 91 99 96 100 91 97 99 100 100 100 100 100 92 92 94 84 77 81 95 92 42 28 39 45 46 39 33 47 35 42 87 89 66 52 60 56 50 42 27 32 30 30 30 39
78 67 80 91 100 99 98 98 98 98 99 100 100 96 85 87 98 87 81 91 97 94 40 41 39 44 40 37 41 39 64 61 77 94 86 61 55 31 30 36 35 39 36 49 50 46 36
80 76 84 95 94 98 98 98 81 82 83 87 89 85 98 78 81 84 92 98 95 69 41 23 25 30 47 33 36 36 61 72 54 40 41 51 55 29 25 28 31 40 32 45 52 35 26
75 80 86 93 94 97 99 99 99 91 86 88 89 93 100 100 100 99 89 93 83 56 42 38 34 50 42 32 27 30 38 44 33 31 40 40 42 31 27 27 29 30 36 23 33 32 34
75 79 88 93 90 96 96 96 97 97 83 79 73 76 91 96 99 97 98 76 57 35 32 34 50 80 56 31 33 34 34 29 32 32 31 37 47 34 26 26 24 34 27 48 42 46 40
88 79 94 88 81 80 87 95 95 97 67 56 53 59 84 94 96 99 85 57 48 37 32 45 51 67 66 40 33 61 38 38 38 40 35 37 34 37 28 32 28 28 38 50 46 44 44
73 80 98 89 97 92 87 95 97 99 76 70 63 81 96 98 100 100 69 49 45 41 36 44 56 57 68 49 65 60 51 44 51 47 45 36 32 31 33 36 28 25 36 35 42 37 43
84 85 89 94 95 97 93 98 98 89 83 64 80 85 99 97 93 74 55 47 44 44 42 53 56 61 42 54 46 67 72 67 56 51 44 32 33 44 36 37 35 36 41 40 43 41 42
84 85 98 100 99 96 96 98 97 97 76 78 61 90 99 99 93 68 61 54 52 39 42 45 51 61 53 49 38 47 50 46 48 47 53 33 28 25 25 37 37 47 42 35 44 57 36
90 96 82 98 89 93 97 95 94 99 76 77 61 72 49 88 82 68 55 47 51 49 45 40 52 70 88 54 45 47 41 47 44 47 43 37 32 32 35 36 34 35 35 31 31 26 35
100 98 78 95 84 94 97 93 93 97 96 78 97 55 50 44 51 63 63 49 45 46 44 45 56 43 50 64 46 46 40 37 37 40 41 43 53 42 35 33 34 36 27 26 27 25 23
85 92 82 98 96 100 96 92 91 98 91 72 64 62 45 53 48 63 53 44 42 39 44 49 42 41 41 42 37 37 35 35 37 37 42 39 54 43 25 33 32 30 32 26 24 25 41
97 96 93 99 98 93 92 94 90 91 77 80 62 55 63 59 39 52 40 39 39 37 44 39 35 39 43 37 36 34 35 35 33 39 31 40 40 39 34 39 55 66 58 65 70 61 72
100 98 98 99 93 95 88 89 92 89 92 95 75 62 53 60 35 43 40 40 38 40 43 44 50 49 39 39 41 47 53 52 60 53 38 33 43 60 66 54 43 76 76 89 89 78 86
100 98 98 100 97 93 88 80 92 72 79 89 81 78 55 62 48 38 44 40 42 43 50 56 52 50 47 48 51 49 48 42 62 67 56 46 43 58 60 69 62 92 62 55 82 87 76
98 96 98 89 88 88 78 67 80 85 85 91 76 79 55 84 55 44 41 44 43 44 44 51 50 50 52 64 70 63 59 49 63 70 76 72 69 67 62 65 85 83 62 66 92 92 78
92 95 87 88 83 78 70 78 77 71 70 78 79 68 61 61 60 56 48 48 51 40 47 59 52 54 54 56 53 67 65 61 70 92 82 70 72 68 58 74 86 66 60 88 94 87 86
83 90 87 86 75 70 72 74 66 62 64 56 68 78 64 52 60 64 64 59 51 43 43 52 52 59 56 48 48 54 68 74 68 82 77 88 90 84 86 88 82 75 86 84 89 89 93

GFSGBSN_925_rhum_105.txt.gz
RH
94 92 93 95 96 96 96 94 90 75 61 55 52 54 52 54 84 97 100 100 100 99 88 79 71 53 57 48 42 41 30 20 27 33 19 18 20 19 22 18 14 16 14 12 10 10 10
92 94 94 88 88 91 93 92 88 77 65 56 53 53 53 69 82 91 90 100 100 100 92 81 65 60 62 68 41 36 26 35 26 27 23 19 19 17 18 18 16 13 12 12 12 11 11
94 94 94 87 86 84 84 82 87 83 70 57 56 55 77 82 92 93 96 98 100 100 94 80 69 70 59 57 44 35 24 26 31 27 24 23 18 18 17 20 16 16 17 14 13 13 14
93 93 92 89 85 82 81 79 88 82 65 62 73 99 99 97 90 94 100 93 100 100 95 84 78 69 70 49 43 41 36 27 25 25 25 22 19 17 19 17 18 21 20 23 17 14 13
88 93 91 88 85 85 77 83 80 64 60 69 97 98 98 99 90 93 100 100 100 100 95 84 76 68 57 44 44 40 37 32 29 26 26 25 18 24 23 30 31 28 31 25 20 14 15
87 88 91 88 84 81 86 78 65 62 60 69 94 99 99 98 85 93 100 100 100 98 89 80 68 76 49 41 32 29 29 33 30 25 26 30 27 33 29 33 52 39 34 25 24 16 16
91 92 89 90 89 89 92 78 70 64 63 71 92 100 97 87 94 100 100 98 93 92 82 58 44 42 34 29 31 29 31 31 26 23 29 28 37 41 34 32 29 30 31 32 19 14 17
90 91 91 95 94 86 75 76 64 58 58 65 93 82 80 89 100 99 96 91 63 58 67 59 49 42 37 36 42 32 26 35 32 35 27 34 52 33 29 29 34 35 32 33 27 20 17
79 73 84 85 78 67 76 69 64 58 58 70 92 87 87 100 100 100 98 83 69 67 85 51 36 39 37 34 42 38 28 31 35 33 30 32 35 33 36 44 65 58 47 33 42 35 19
79 74 70 72 64 69 69 67 69 62 67 86 88 83 97 100 100 100 98 77 71 69 98 45 36 33 32 34 45 31 31 32 36 37 32 34 28 36 44 54 57 76 43 32 38 32 30
86 77 76 71 64 72 69 75 94 84 69 93 88 94 99 98 97 97 88 74 71 71 95 19 25 29 28 42 28 24 26 35 42 40 54 48 43 44 45 49 39 63 40 45 41 30 26
78 75 74 77 68 78 77 93 94 82 79 98 95 100 100 100 95 89 82 71 75 96 78 31 25 30 35 40 35 23 31 31 38 62 82 70 63 54 39 35 47 59 63 42 37 32 46
85 78 72 79 87 88 98 99 98 91 100 100 100 100 100 99 96 90 78 80 97 96 40 39 30 28 32 33 34 30 37 55 59 94 85 68 63 63 47 61 51 65 87 81 77 70 61
74 77 74 77 88 89 96 99 99 99 98 98 100 96 94 88 93 77 76 97 98 47 47 27 27 26 37 31 30 29 35 56 44 52 67 87 84 60 50 54 64 59 70 64 75 66 50
82 80 72 76 81 90 90 99 98 90 88 88 87 96 99 100 92 85 94 98 78 71 40 38 30 36 35 30 30 29 32 50 46 45 63 53 44 26 27 28 31 63 57 36 46 42 44
94 91 69 72 81 98 95 98 99 93 91 92 88 92 100 100 100 96 100 84 52 37 32 30 45 58 45 36 34 27 28 32 43 45 33 49 59 28 25 23 25 33 36 47 51 68 46
88 93 80 76 79 99 96 96 99 92 85 79 82 94 99 100 99 99 89 58 42 30 27 36 39 56 46 44 30 29 35 30 37 29 29 38 40 44 29 30 36 30 62 53 59 53 54
92 92 81 82 78 100 91 87 92 82 60 63 63 98 99 100 100 100 72 51 42 36 31 35 39 44 46 46 36 54 41 34 36 28 38 38 44 50 33 31 26 26 27 41 75 53 65
90 94 94 90 90 89 87 85 89 94 62 71 94 92 96 99 98 91 55 47 38 40 37 44 47 42 38 51 53 84 45 50 47 39 38 35 46 43 37 32 26 26 24 28 32 37 36
86 94 95 90 87 98 96 86 86 95 78 94 75 98 100 100 96 74 60 55 47 34 37 41 61 44 47 50 41 63 69 58 43 38 54 40 34 36 42 37 29 36 28 26 32 51 32
82 88 97 85 85 95 100 90 88 81 82 97 83 79 60 97 96 61 58 50 49 47 35 35 59 55 57 61 51 52 47 49 43 48 36 36 43 30 24 25 24 28 28 27 27 26 30
87 90 93 82 77 75 100 91 88 93 93 97 97 60 45 48 49 59 68 63 44 41 37 46 51 49 57 67 50 44 40 39 37 36 33 34 36 35 31 25 24 24 19 18 19 18 19
87 98 85 90 90 89 99 94 90 92 99 97 69 57 47 53 51 65 69 46 42 44 40 43 47 43 59 60 35 30 29 31 32 36 38 38 46 36 24 26 23 22 24 20 18 14 22
100 98 91 84 98 73 100 85 79 92 90 79 79 68 64 63 53 53 45 41 43 48 46 41 46 37 36 29 29 29 30 30 30 30 29 35 36 32 27 30 34 52 47 49 54 44 52
98 94 90 98 91 98 100 84 86 85 94 91 92 69 69 84 36 43 45 38 44 39 57 35 37 33 30 31 37 40 40 38 37 28 26 23 30 42 54 38 40 48 55 86 84 79 80
98 98 100 93 88 100 94 89 89 88 93 90 88 86 71 84 42 37 40 42 48 47 47 51 44 38 34 37 40 39 44 30 48 49 33 34 37 50 47 56 51 86 52 44 67 75 65
100 99 99 98 95 96 87 87 84 80 86 86 90 85 66 97 48 44 50 45 39 40 44 45 47 46 38 53 62 49 46 32 49 57 66 56 56 57 50 51 85 71 50 55 92 92 74
99 99 99 98 91 88 86 79 75 73 85 96 95 80 71 66 55 43 39 44 40 34 46 44 45 46 42 53 44 51 58 44 57 93 57 56 54 55 43 62 83 58 56 80 89 78 74
100 96 84 80 83 81 72 69 78 77 82 86 90 76 67 56 59 54 54 51 50 41 35 42 43 37 42 41 36 40 55 60 60 66 63 81 93 88 83 90 80 69 82 78 72 75 88

GFSGBSN_925_rhum_108.txt.gz
RH
89 89 89 92 91 93 98 96 88 88 84 73 64 54 48 52 51 56 74 89 91 99 99 96 85 73 66 59 52 42 43 38 22 19 26 23 22 23 26 22 20 21 18 15 14 13 13
85 85 89 89 89 89 85 92 86 81 87 78 68 55 53 53 58 88 74 93 92 99 97 95 86 71 68 74 42 38 42 34 33 28 26 25 24 22 25 26 25 21 19 18 15 13 12
88 89 90 88 86 86 82 81 79 77 89 83 64 54 57 60 96 96 89 94 100 95 100 96 84 75 66 63 40 36 33 29 25 30 26 25 24 25 24 27 21 20 23 19 18 17 16
83 90 93 91 86 84 84 81 72 73 77 70 60 60 63 82 98 98 89 92 100 100 100 95 84 76 73 44 39 40 37 32 31 24 24 24 25 25 26 23 24 28 27 34 24 19 16
80 87 90 90 88 82 75 77 80 80 64 62 64 66 75 94 98 97 89 90 100 100 99 93 82 71 57 38 42 37 36 33 31 27 24 25 26 30 28 34 36 32 41 38 31 21 18
85 92 92 92 87 82 83 85 86 71 66 66 62 69 77 97 98 92 95 100 100 99 95 84 73 72 52 36 25 31 26 32 31 30 30 29 30 39 33 35 54 38 33 29 32 25 21
82 86 90 94 90 91 96 95 77 68 63 55 57 64 72 99 100 100 99 98 94 95 86 63 48 43 33 25 28 27 25 28 27 33 40 29 38 43 30 26 29 30 32 35 28 23 28
83 83 88 92 94 93 90 71 66 68 59 54 52 62 79 94 99 100 97 88 62 56 65 65 53 42 36 30 37 26 26 28 32 40 30 31 32 24 22 25 30 34 42 45 40 30 29
86 81 88 91 93 88 71 62 64 64 58 54 54 66 87 100 100 100 98 84 69 60 62 44 38 49 39 33 38 32 24 29 31 36 33 36 28 21 24 33 36 34 38 46 48 38 34
80 84 80 84 91 79 66 62 65 64 59 54 55 78 100 100 100 99 95 85 70 61 82 38 29 29 28 29 34 25 25 29 33 36 34 35 26 27 26 33 33 45 35 40 47 56 81
81 79 70 74 59 72 64 66 68 63 61 56 65 99 100 97 93 97 86 76 69 64 71 10 18 22 23 30 24 23 24 29 39 38 37 42 34 38 38 32 27 43 56 62 73 77 66
85 83 84 74 77 71 69 74 77 72 76 67 79 100 100 100 96 93 79 75 73 97 74 23 23 31 32 32 30 22 25 26 32 40 39 48 51 56 50 41 37 57 72 67 70 72 94
82 90 79 80 79 74 76 85 99 100 98 71 99 100 100 99 94 87 77 89 99 92 23 22 21 24 27 30 35 33 32 37 50 73 70 50 56 47 46 51 38 55 91 92 92 92 68
86 80 81 79 77 74 85 91 91 100 98 99 100 100 100 95 89 78 89 98 99 34 37 21 24 19 29 26 28 30 34 34 40 45 47 56 61 46 46 49 50 53 78 74 90 85 57
90 91 87 76 69 71 84 94 90 99 99 97 97 97 98 97 91 91 97 98 76 43 26 30 26 31 28 26 28 30 35 33 30 45 73 50 49 36 40 41 42 75 91 57 67 71 94
84 80 80 72 69 71 76 90 90 90 90 92 90 97 100 100 99 98 100 85 64 44 48 42 53 52 42 33 36 47 34 29 28 42 34 60 57 45 39 35 35 50 46 97 94 88 87
85 88 89 81 74 72 75 85 99 94 87 99 94 97 96 100 99 99 98 86 62 45 43 37 42 41 47 44 40 64 71 32 28 38 36 59 43 53 43 39 31 36 41 80 97 55 78
86 88 93 92 87 78 80 83 100 99 95 100 96 100 99 100 100 100 93 62 54 50 29 29 33 37 40 40 43 38 57 53 39 47 60 44 43 55 44 25 24 28 35 70 98 94 90
86 88 89 92 93 87 86 75 98 100 97 80 98 100 100 98 99 98 70 56 52 37 35 35 36 36 36 45 53 49 50 54 41 35 38 40 52 54 63 42 27 31 33 30 40 41 45
81 80 85 89 92 92 88 83 82 98 82 90 99 100 100 99 98 87 70 64 63 34 34 33 38 42 41 46 37 56 63 53 40 36 48 40 40 46 63 60 34 36 27 24 30 60 44
79 80 78 84 89 88 78 74 75 98 73 92 99 97 62 96 97 84 65 49 57 52 34 35 48 48 47 52 44 54 57 55 44 49 39 39 51 37 33 24 23 28 24 22 25 25 42
75 79 83 83 91 79 74 88 96 100 97 98 100 98 65 48 61 81 71 68 48 42 39 40 51 44 46 54 46 51 66 50 53 40 44 44 60 46 42 26 23 24 17 18 20 20 18
81 75 84 92 93 84 96 96 88 99 99 98 76 60 78 60 89 71 66 61 55 40 40 32 39 45 50 53 48 36 36 38 35 50 56 45 52 42 40 28 23 26 26 18 20 17 25
86 80 86 92 98 94 94 91 91 98 95 70 67 80 90 71 55 67 48 46 47 48 71 44 52 58 53 33 29 29 32 34 35 37 31 42 40 36 33 31 34 49 44 42 49 63 56
92 92 91 96 99 95 87 94 98 95 95 87 92 98 96 93 60 46 46 51 45 62 68 41 46 48 29 31 45 50 42 38 35 29 28 26 34 38 43 37 47 45 53 81 77 87 70
87 96 98 93 94 94 96 94 96 92 94 98 92 94 96 100 77 42 49 53 92 88 62 49 37 31 33 47 51 56 57 38 48 43 22 24 27 52 50 54 49 78 46 43 62 82 66
98 99 97 99 99 89 94 99 92 85 93 98 96 92 89 100 65 69 73 81 61 63 50 51 50 47 37 59 70 58 58 27 52 52 46 49 51 56 52 47 87 68 46 49 85 89 79
91 97 96 99 97 89 100 95 90 88 96 99 96 88 94 100 59 71 57 73 53 48 57 53 49 48 50 60 50 52 65 41 64 89 48 49 52 54 48 53 73 60 54 76 87 74 79
95 100 100 100 100 96 95 95 91 88 98 97 92 80 82 96 63 54 50 48 48 44 51 46 42 46 49 44 33 39 55 60 60 69 60 84 92 87 89 91 76 71 83 77 77 78 81

GFSGBSN_925_rhum_111.txt.gz
RH
87 87 87 88 89 91 92 93 84 86 79 81 78 67 59 51 49 52 54 58 70 91 92 99 86 86 73 70 65 41 46 44 40 28 24 25 32 29 33 29 29 30 26 23 21 20 19
84 81 83 84 89 89 86 84 75 78 74 72 80 75 60 58 64 72 77 78 78 96 99 99 95 86 74 90 43 35 41 46 41 29 28 28 33 29 34 33 35 30 29 28 23 21 20
80 80 82 83 83 83 82 83 75 70 66 68 76 64 61 62 77 99 98 95 92 91 100 84 97 80 73 75 39 23 37 44 39 30 33 29 27 33 35 40 32 30 35 30 28 24 23
77 79 81 83 84 82 84 84 78 74 73 77 67 64 67 68 81 99 99 93 92 95 100 88 95 81 87 58 43 44 41 40 35 33 26 25 24 30 33 33 33 38 36 44 30 27 25
79 78 83 84 82 84 85 74 76 83 83 68 66 67 70 72 84 97 96 89 89 100 99 98 92 81 86 45 50 41 42 40 34 31 31 24 26 36 38 48 53 46 56 47 39 28 29
86 85 91 93 88 86 80 76 84 87 74 65 67 66 67 67 82 94 96 94 99 100 99 93 84 81 67 42 37 37 33 35 36 35 35 36 38 46 50 58 72 55 54 44 41 29 38
88 86 86 90 87 88 95 95 90 70 60 64 61 60 58 70 96 100 99 98 97 96 90 83 73 65 36 31 26 31 26 28 32 37 55 44 57 63 53 48 43 41 41 39 33 32 39
85 85 88 87 91 93 95 93 82 64 65 63 60 60 58 77 100 99 87 93 71 66 88 81 64 61 45 38 44 31 27 34 42 51 44 51 57 42 37 37 36 34 38 44 38 32 38
88 89 88 88 91 91 95 91 71 62 63 61 57 58 66 84 100 100 96 79 71 62 84 56 70 69 59 49 55 45 33 35 40 46 46 52 41 32 32 33 32 32 42 43 42 36 41
78 74 81 85 85 79 73 71 65 60 62 60 55 54 73 99 100 97 97 82 77 62 98 61 42 44 46 42 50 36 32 35 40 47 42 45 34 38 38 38 34 44 36 58 65 74 86
85 80 72 74 78 72 71 58 66 62 67 60 56 55 79 98 88 98 84 78 70 63 100 24 25 26 31 47 32 31 31 36 46 45 45 49 42 43 59 48 48 56 63 69 72 79 76
82 83 83 80 80 81 75 69 63 67 71 64 60 66 81 100 97 90 83 76 72 97 93 33 30 33 37 42 32 29 31 28 34 46 48 46 53 58 60 49 46 59 70 65 70 82 95
83 84 78 80 80 76 76 72 67 79 90 94 70 76 99 96 95 89 80 84 100 98 30 23 28 33 37 39 36 34 36 47 60 75 75 56 58 54 52 64 51 76 79 94 93 97 86
93 84 83 74 79 80 78 75 73 87 88 98 94 100 100 99 86 82 84 99 98 52 41 20 25 23 34 30 32 38 42 49 49 54 59 70 72 48 52 60 60 74 75 87 94 92 87
92 90 87 84 85 79 72 74 80 89 87 94 100 99 99 97 89 85 97 97 82 55 31 34 30 32 32 27 29 32 42 46 39 47 67 68 55 42 41 45 53 73 91 57 86 74 90
90 91 91 77 87 78 69 75 84 91 89 94 90 94 96 98 92 99 98 84 70 48 37 45 58 49 40 33 32 37 60 38 39 35 46 58 78 44 44 48 49 61 57 95 96 93 89
89 75 85 85 78 79 74 70 80 92 93 92 92 97 96 100 100 99 97 97 70 48 42 53 62 61 57 50 44 60 68 60 52 51 43 61 64 53 47 62 61 59 68 78 88 97 96
91 88 87 89 87 82 73 72 72 88 95 99 97 98 98 100 99 100 97 86 56 59 46 54 52 52 56 47 47 48 66 61 47 52 66 62 66 69 55 44 42 39 53 61 97 92 98
91 84 90 90 92 87 81 80 76 84 99 97 98 100 100 100 98 97 87 69 58 64 69 68 43 41 38 47 56 54 63 60 44 55 81 78 99 83 56 58 51 47 39 62 66 83 79
86 90 88 89 88 90 89 87 82 72 86 96 99 99 100 100 100 97 79 91 92 75 53 51 39 37 48 54 50 54 81 56 48 43 52 49 56 57 67 73 64 48 37 38 54 80 64
77 86 79 84 81 88 93 89 83 76 79 98 100 99 84 98 97 100 80 79 73 77 47 39 47 52 61 64 58 56 57 66 49 45 44 55 67 48 42 50 34 30 30 30 37 40 57
89 88 86 85 85 83 86 85 61 76 94 97 100 98 88 81 71 92 89 99 87 67 66 48 62 56 56 64 56 60 83 89 62 46 55 52 82 52 59 39 28 30 24 21 22 23 23
75 77 80 82 84 88 86 75 70 71 92 100 98 84 96 98 93 90 82 75 70 64 50 42 46 53 59 56 54 48 63 60 48 56 62 59 69 64 81 45 37 36 46 40 48 62 56
88 85 84 85 81 86 91 88 89 83 99 91 76 80 97 95 100 86 66 68 64 58 81 58 56 71 58 41 41 43 56 59 51 55 51 59 59 66 65 40 55 62 49 54 75 76 66
87 84 85 84 82 84 90 91 94 82 99 97 93 92 98 97 77 66 75 62 57 54 81 85 59 57 52 44 61 57 52 44 44 40 44 40 57 62 72 68 61 56 64 80 81 90 78
99 94 92 88 85 84 92 87 93 96 94 95 93 90 99 97 93 80 74 64 93 100 99 98 58 52 42 74 78 91 85 57 55 42 30 32 43 75 72 80 80 85 58 59 68 96 79
92 92 95 96 92 90 91 84 83 90 98 97 92 92 99 98 95 96 94 97 89 98 99 71 54 50 48 87 89 86 77 40 64 65 53 58 67 71 79 84 90 72 54 55 88 88 80
85 90 95 96 94 90 88 91 88 100 99 97 95 98 97 100 98 82 81 96 92 89 96 70 71 63 67 80 81 88 98 76 76 81 56 67 76 82 75 84 97 75 69 81 92 86 84
99 97 93 88 82 90 96 91 97 99 95 97 96 94 97 98 93 74 70 75 68 63 67 63 66 58 77 69 60 58 83 86 81 95 66 83 87 96 95 99 84 75 89 85 80 90 86

GFSGBSN_925_rhum_114.txt.gz
RH
89 94 90 90 91 92 92 90 89 78 80 72 68 73 69 63 52 50 53 57 63 65 85 91 97 85 79 76 70 28 35 44 43 41 25 25 34 33 35 31 36 38 33 30 30 29 28
88 87 84 83 84 87 91 87 80 70 70 65 66 77 74 59 60 62 71 89 88 87 89 88 96 95 75 90 35 32 43 45 46 40 29 28 35 33 39 37 40 36 38 36 31 31 28
82 83 79 79 82 84 83 82 80 74 67 64 66 71 64 66 71 80 100 100 96 94 89 86 96 90 76 74 30 30 38 42 44 42 32 29 30 35 38 42 35 36 43 38 35 31 29
87 79 79 81 81 83 82 82 83 70 65 72 71 62 66 70 75 90 98 98 96 91 90 100 100 82 87 55 46 53 48 50 38 40 40 36 30 30 35 34 39 43 44 54 34 28 29
96 84 78 80 82 83 82 86 75 70 83 81 61 63 63 65 74 82 94 92 87 90 94 100 94 89 86 53 55 34 46 52 42 38 39 35 28 35 37 50 65 52 69 56 43 31 32
89 90 80 79 80 80 83 84 74 81 86 65 63 67 63 64 71 89 91 86 92 97 100 99 89 88 73 48 40 37 36 40 44 40 40 37 40 50 57 67 78 64 64 54 52 39 36
91 90 90 89 84 81 81 94 84 86 76 60 60 64 63 63 80 97 93 94 91 94 95 86 75 72 42 41 35 37 34 40 39 41 58 48 60 67 55 58 52 51 54 55 46 34 39
85 87 92 91 89 92 94 94 85 84 70 62 65 64 61 69 93 94 86 93 74 70 94 84 71 70 49 45 48 39 29 44 47 60 53 59 70 53 47 50 54 56 59 54 37 33 37
89 88 87 89 93 89 90 94 87 78 66 62 66 63 61 83 94 100 96 78 64 72 90 72 73 77 62 58 61 47 38 40 47 55 55 65 51 42 46 49 51 49 50 44 43 54 45
74 71 77 87 92 88 79 75 66 61 66 64 67 62 63 92 99 98 98 68 69 77 98 64 64 65 62 53 64 43 32 41 46 53 52 56 43 45 45 46 44 54 55 59 64 70 74
90 84 76 73 73 72 75 75 71 61 62 64 64 59 72 98 86 98 87 72 78 71 38 26 44 44 52 51 36 44 39 44 50 51 51 58 45 50 51 46 49 60 61 66 70 80 89
85 89 84 78 75 79 77 81 76 69 64 63 63 58 81 96 96 80 74 77 78 92 73 38 37 55 65 49 42 34 44 39 41 54 53 52 50 49 50 50 49 65 65 64 75 87 99
84 82 78 75 77 77 78 73 75 72 67 67 66 63 95 97 86 81 75 85 99 96 38 33 39 53 54 57 52 39 44 52 60 72 74 58 61 59 56 67 58 68 72 89 88 86 87
90 86 81 79 76 71 70 79 75 75 70 75 76 92 97 97 89 83 85 98 100 60 49 24 30 34 48 47 49 45 47 57 52 51 70 78 73 67 58 60 68 77 72 89 90 93 89
83 82 76 73 74 73 74 72 74 73 77 84 89 99 100 100 90 88 94 98 73 58 40 39 31 35 35 39 38 45 47 48 46 54 62 72 66 43 56 54 53 77 86 59 86 87 96
91 90 87 80 75 72 84 82 73 74 86 90 91 92 93 99 94 98 98 95 73 48 42 46 64 53 50 34 39 40 51 48 44 47 47 59 66 51 47 50 53 63 64 93 96 96 96
84 85 90 91 81 71 86 84 76 77 91 92 88 98 93 100 99 99 98 90 64 48 49 54 58 65 57 51 46 63 59 56 52 52 47 63 66 66 56 63 70 73 72 81 81 94 97
85 90 90 85 76 72 76 78 76 79 91 96 98 93 98 100 99 100 98 78 58 61 54 58 63 64 65 56 51 50 72 58 49 51 66 81 78 92 60 53 50 52 61 74 94 88 97
90 91 92 91 87 84 74 73 71 76 93 97 99 99 97 100 97 95 97 91 71 74 61 62 63 60 56 58 69 60 56 62 52 65 79 87 100 97 90 64 53 60 51 55 66 91 93
92 90 91 84 88 92 93 79 77 70 90 94 99 99 100 100 99 98 96 98 88 70 81 71 64 60 49 55 53 62 80 62 53 62 77 84 100 99 85 69 61 57 46 57 74 96 76
93 90 91 90 90 91 92 90 75 75 74 100 100 99 86 98 98 93 80 70 75 97 75 78 78 62 62 68 59 64 73 65 51 60 59 83 91 74 56 55 53 49 29 36 55 57 68
94 92 81 74 75 87 86 91 80 71 74 93 99 100 98 92 76 93 97 98 81 71 67 91 99 87 65 68 61 68 78 86 68 48 67 68 96 94 91 55 39 31 26 24 23 40 77
90 91 88 76 84 88 88 86 83 74 80 99 98 94 99 88 88 91 80 75 78 75 70 56 66 64 64 64 59 50 71 77 72 58 71 81 96 96 94 75 69 64 38 52 65 66 67
93 91 87 87 87 85 84 84 83 76 85 93 94 93 99 96 97 83 71 71 74 69 75 65 68 64 57 60 63 64 67 60 56 59 59 74 86 86 87 78 95 66 63 60 76 80 73
92 90 89 90 88 86 85 83 84 84 74 96 81 85 99 98 91 96 99 97 72 69 70 84 71 69 63 70 88 94 94 83 76 59 59 57 85 96 83 72 71 62 66 80 77 92 81
90 87 87 85 85 88 87 84 81 85 88 98 88 95 97 98 92 76 84 91 96 90 90 87 88 88 58 83 86 94 90 70 70 59 49 58 56 77 82 70 88 81 64 62 61 89 83
99 100 100 97 91 86 86 87 81 81 91 99 99 97 96 98 91 90 95 93 90 93 96 97 97 98 60 91 96 93 82 52 68 69 61 56 70 62 75 83 89 73 62 60 71 80 86
84 90 97 96 91 88 85 79 80 77 90 98 98 91 88 100 93 92 93 92 92 93 95 98 92 81 77 79 88 94 95 84 80 77 58 62 69 80 78 92 92 77 69 77 89 90 94
90 94 99 96 92 88 87 85 91 98 96 100 98 94 99 96 95 96 98 89 80 78 78 73 72 70 78 74 74 79 99 98 83 89 72 77 78 90 93 91 91 86 93 90 84 91 91